Regional Weather Roundup
Issued by NWS Green Bay, WI

Home | Current Version | Previous Version | Graphics & Text | Print | Product List | Glossary Off
Versions: 1 2 3 4 5 6 7 8 9 10 11 12 13 14 15 16 17 18 19 20 21 22 23 24 25 26 27 28 29 30 31 32 33 34 35 36 37 38 39 40 41 42 43 44 45 46 47 48 49 50

000
ASUS43 KGRB 221710
RWRGRB

NORTH-CENTRAL AND NORTHEAST WISCONSIN REGIONAL WEATHER ROUNDUP
NATIONAL WEATHER SERVICE GREEN BAY WI
1200 PM CDT TUE APR 22 2014

WIZ005-009-010>012-018-019-221800-
NORTH CENTRAL WISCONSIN

CITY           SKY/WX    TMP DP  RH WIND       PRES   REMARKS
IRONWOOD       CLOUDY    37  25  60 NW14G21   30.05R
MANITOWISH WTR CLOUDY    37  23  56 N12G18    30.04R
ARBOR VITAE    CLOUDY    39  24  54 NW15G22   30.03S
EAGLE RIVER    CLOUDY    38  24  55 NW16      30.01S
LAND O LAKES   CLOUDY    37  26  64 N9G20     30.01S
RHINELANDER    CLOUDY    38  22  52 VRB6G25   30.02R
PHILLIPS       PTSUNNY   41  24  50 NW13G18   30.04R
ANTIGO         CLOUDY    39  27  62 N20G25    30.00R
TOMAHAWK       CLOUDY    41  23  48 N15G22    30.03R
MERRILL        PTSUNNY   44  25  46 NW14      30.01S
$$

WIZ013-073-221800-
NORTHEAST WISCONSIN

CITY           SKY/WX    TMP DP  RH WIND       PRES   REMARKS
IRON MOUNTAIN  CLOUDY    40  24  53 NW21G29   29.95R
MARINETTE      CLOUDY    45  27  49 N15G22    29.94S
OCONTO         CLOUDY    46  28  50 NW17G23   29.96R
$$

WIZ017-030-035>037-045-221800-
CENTRAL WISCONSIN

CITY           SKY/WX    TMP DP  RH WIND       PRES   REMARKS
MEDFORD        MOSUNNY   44  27  50 NW15G21   30.02R
WAUSAU         MOSUNNY   46  24  42 N13G25    29.99S
MOSINEE        NOT AVBL
MARSHFIELD     MOSUNNY   48  29  47 N14       30.02R
WISC RAPIDS    MOSUNNY   49  27  42 NW15      30.03S
STEVENS POINT  MOSUNNY   44  24  44 NW15G23   30.01S
WAUPACA        MOSUNNY   50  27  40 N12G23    30.00R
SHAWANO        CLOUDY    47  28  47 NW12G18   29.99S
CLINTONVILLE   PTSUNNY   46  27  46 NW20      29.99R
$$

WIZ038-039-048-051-221800-
FOX VALLEY

CITY           SKY/WX    TMP DP  RH WIND       PRES   REMARKS
NWS GREEN BAY  PTSUNNY   46  32  58 NW20G26   29.97S
APPLETON       PTSUNNY   46  28  49 NW17G24   29.98S
OSHKOSH        MOSUNNY   49  30  48 NW13      29.97S
FOND DU LAC    MOSUNNY   51  30  44 NW17G25   29.97S
$$

WIZ022-050-052-221800-
EAST CENTRAL WISCONSIN

CITY           SKY/WX    TMP DP  RH WIND       PRES   REMARKS
STURGEON BAY   CLOUDY    45  28  53 NW14      29.95S
MANITOWOC      PTSUNNY   48  31  51 NW20      29.95R
SHEBOYGAN      MOSUNNY   49  31  49 NW18      29.95S
$$

LMZ563-521-522-541>543-221800-
LAKESHORE

STATION/POSITION TIME  TEMP    WIND        PRES    VSBY  WAVE
                       AIR SEA DIR/SP/G                  HT/PER
                 (UTC) (F)     (DEG/KT/KT) (MB)    (MI)  (FT/S)
SHEBOYGAN LKSHOR 1700   48     330/ 17/ 20 1014.7R
KEWAUNEE LKSHORE 1700   46     310/ 14/ 21 1014.6R
NORTHPORT PIER   1700   36     320/ 10/ 12 1013.5S
SISTER BAY LKSHO 1700   42     350/ 17/ 19   N/A
MENOMINEE LKSHOR 1700   44     300/ 12/ 28 1014.4R
$$



USA.gov is the U.S. government's official web portal to all federal, state and local government web resources and services.